TimeEDT,TemperatureF,Dew PointF,Humidity,Sea Level PressureIn,VisibilityMPH,Wind Direction,Wind SpeedMPH,Gust SpeedMPH,PrecipitationIn,Events,Conditions,WindDirDegrees,DateUTC
12:15 AM,58.1,50.5,76,29.97,10.0,WSW,10.4,-,N/A,,Overcast,240,2012-10-05 04:15:00
12:36 AM,57.9,49.5,73,29.97,10.0,WSW,8.1,16.1,N/A,,Overcast,250,2012-10-05 04:36:00
12:55 AM,57.6,49.3,74,29.98,10.0,WSW,9.2,17.3,N/A,,Overcast,240,2012-10-05 04:55:00
1:15 AM,57.2,49.1,74,29.98,10.0,WSW,9.2,-,N/A,,Overcast,250,2012-10-05 05:15:00
1:36 AM,57.2,48.9,74,29.98,10.0,WSW,10.4,-,N/A,,Overcast,240,2012-10-05 05:36:00
1:55 AM,56.3,48.6,75,29.98,10.0,WSW,8.1,-,N/A,,Mostly Cloudy,250,2012-10-05 05:55:00
2:15 AM,55.6,46.2,71,29.99,10.0,West,12.7,23.0,N/A,,Scattered Clouds,270,2012-10-05 06:15:00
2:35 AM,54.1,43.5,67,30.00,10.0,West,10.4,-,N/A,,Clear,260,2012-10-05 06:35:00
2:55 AM,52.9,42.6,68,30.00,10.0,West,11.5,16.1,N/A,,Clear,260,2012-10-05 06:55:00
3:15 AM,51.8,42.1,69,30.00,10.0,WSW,5.8,-,N/A,,Clear,250,2012-10-05 07:15:00
3:35 AM,50.7,42.1,72,30.00,10.0,West,4.6,-,N/A,,Clear,270,2012-10-05 07:35:00
3:55 AM,49.6,41.5,74,29.99,10.0,West,8.1,-,N/A,,Clear,280,2012-10-05 07:55:00
4:15 AM,49.3,41.0,73,30.00,10.0,West,8.1,-,N/A,,Clear,260,2012-10-05 08:15:00
4:35 AM,48.9,40.3,72,30.00,10.0,WSW,6.9,-,N/A,,Clear,250,2012-10-05 08:35:00
4:55 AM,47.7,40.5,76,30.01,10.0,West,11.5,-,N/A,,Clear,260,2012-10-05 08:55:00
5:15 AM,47.3,39.7,75,30.02,10.0,West,10.4,-,N/A,,Clear,260,2012-10-05 09:15:00
5:35 AM,46.4,39.4,77,30.02,10.0,WSW,5.8,-,N/A,,Clear,250,2012-10-05 09:35:00
5:55 AM,45.5,39.6,80,30.02,10.0,WSW,9.2,-,N/A,,Clear,250,2012-10-05 09:55:00
6:15 AM,45.5,38.8,78,30.03,10.0,WSW,9.2,-,N/A,,Clear,250,2012-10-05 10:15:00
6:35 AM,44.8,38.7,79,30.03,10.0,WSW,4.6,-,N/A,,Clear,250,2012-10-05 10:35:00
6:55 AM,44.1,39.0,82,30.03,10.0,WSW,5.8,-,N/A,,Clear,250,2012-10-05 10:55:00
7:15 AM,43.7,38.8,83,30.02,10.0,West,5.8,-,N/A,,Clear,260,2012-10-05 11:15:00
7:35 AM,43.7,38.5,82,30.02,10.0,West,5.8,-,N/A,,Clear,260,2012-10-05 11:35:00
7:55 AM,42.3,38.1,85,30.03,10.0,WSW,4.6,-,N/A,,Clear,240,2012-10-05 11:55:00
8:15 AM,42.4,38.5,86,30.03,10.0,WSW,4.6,-,N/A,,Clear,250,2012-10-05 12:15:00
8:35 AM,43.7,39.2,84,30.03,10.0,WSW,4.6,-,N/A,,Clear,250,2012-10-05 12:35:00
8:55 AM,44.2,39.0,82,30.03,10.0,WSW,5.8,-,N/A,,Clear,250,2012-10-05 12:55:00
9:15 AM,45.7,39.0,78,30.03,10.0,WSW,9.2,-,N/A,,Clear,240,2012-10-05 13:15:00
9:35 AM,47.3,39.0,73,30.03,10.0,WSW,10.4,-,N/A,,Clear,250,2012-10-05 13:35:00
9:55 AM,47.8,38.7,70,30.03,10.0,WSW,13.8,20.7,N/A,,Scattered Clouds,240,2012-10-05 13:55:00
10:16 AM,49.1,39.0,68,30.03,10.0,WSW,13.8,-,N/A,,Scattered Clouds,240,2012-10-05 14:16:00
10:35 AM,50.4,39.0,65,30.03,10.0,WSW,11.5,-,N/A,,Mostly Cloudy,240,2012-10-05 14:35:00
10:55 AM,50.0,38.1,64,30.03,10.0,WSW,13.8,-,N/A,,Scattered Clouds,240,2012-10-05 14:55:00
11:16 AM,50.7,38.1,62,30.02,10.0,WSW,12.7,17.3,N/A,,Scattered Clouds,250,2012-10-05 15:16:00
11:35 AM,52.0,38.3,60,30.02,10.0,WSW,15.0,-,N/A,,Clear,240,2012-10-05 15:35:00
11:55 AM,53.1,38.8,59,30.02,10.0,WSW,12.7,19.6,N/A,,Scattered Clouds,250,2012-10-05 15:55:00
12:35 PM,53.8,37.2,54,30.01,10.0,WSW,12.7,20.7,N/A,,Clear,250,2012-10-05 16:35:00
12:55 PM,54.1,36.9,52,30.01,10.0,SW,15.0,-,N/A,,Clear,230,2012-10-05 16:55:00
1:16 PM,54.9,37.4,52,30.00,10.0,WSW,9.2,20.7,N/A,,Clear,240,2012-10-05 17:16:00
1:35 PM,56.1,36.0,47,29.99,10.0,West,10.4,19.6,N/A,,Clear,270,2012-10-05 17:35:00
1:55 PM,57.0,35.6,45,29.97,10.0,West,15.0,19.6,N/A,,Clear,260,2012-10-05 17:55:00
2:35 PM,57.0,34.5,43,29.97,10.0,WSW,15.0,19.6,N/A,,Clear,250,2012-10-05 18:35:00
2:55 PM,57.7,34.9,42,29.96,10.0,West,12.7,20.7,N/A,,Clear,260,2012-10-05 18:55:00
3:15 PM,57.6,34.2,41,29.96,10.0,West,12.7,18.4,N/A,,Clear,270,2012-10-05 19:15:00
3:35 PM,56.3,32.7,41,29.96,10.0,West,15.0,20.7,N/A,,Clear,260,2012-10-05 19:35:00
3:55 PM,55.4,32.5,42,29.95,10.0,West,16.1,20.7,N/A,,Clear,260,2012-10-05 19:55:00
4:15 PM,55.6,31.3,40,29.95,10.0,West,15.0,23.0,N/A,,Clear,260,2012-10-05 20:15:00
4:35 PM,54.1,32.0,43,29.95,10.0,West,11.5,17.3,N/A,,Clear,260,2012-10-05 20:35:00
4:55 PM,53.2,31.8,44,29.94,10.0,WSW,12.7,-,N/A,,Clear,250,2012-10-05 20:55:00
5:15 PM,52.7,32.0,45,29.94,10.0,West,11.5,16.1,N/A,,Scattered Clouds,260,2012-10-05 21:15:00
5:35 PM,52.0,33.6,50,29.94,10.0,WSW,9.2,-,N/A,,Scattered Clouds,250,2012-10-05 21:35:00
5:55 PM,51.1,33.8,52,29.95,10.0,WSW,9.2,-,N/A,,Scattered Clouds,250,2012-10-05 21:55:00
6:15 PM,50.5,34.3,54,29.95,10.0,WSW,13.8,18.4,N/A,,Mostly Cloudy,240,2012-10-05 22:15:00
6:35 PM,50.2,35.4,57,29.95,10.0,West,11.5,16.1,N/A,,Mostly Cloudy,260,2012-10-05 22:35:00
6:55 PM,49.5,36.5,61,29.96,10.0,SW,9.2,-,N/A,,Mostly Cloudy,230,2012-10-05 22:55:00
7:15 PM,49.1,36.7,62,29.96,10.0,WSW,10.4,17.3,N/A,,Scattered Clouds,240,2012-10-05 23:15:00
7:35 PM,48.9,36.7,63,29.95,10.0,WSW,9.2,17.3,N/A,,Clear,240,2012-10-05 23:35:00
7:55 PM,48.4,37.4,66,29.95,10.0,WSW,9.2,-,N/A,,Mostly Cloudy,250,2012-10-05 23:55:00
8:15 PM,48.4,37.6,66,29.95,10.0,WSW,9.2,-,N/A,,Overcast,240,2012-10-06 00:15:00
8:35 PM,48.4,37.4,66,29.95,10.0,SW,6.9,-,N/A,,Mostly Cloudy,230,2012-10-06 00:35:00
8:55 PM,48.2,37.8,67,29.94,10.0,SW,6.9,-,N/A,,Overcast,220,2012-10-06 00:55:00
9:15 PM,48.2,37.9,68,29.93,10.0,SSW,5.8,-,N/A,,Overcast,210,2012-10-06 01:15:00
9:35 PM,48.0,38.3,69,29.93,10.0,SSW,5.8,-,N/A,,Mostly Cloudy,210,2012-10-06 01:35:00
9:56 PM,47.8,38.1,69,29.93,10.0,WSW,6.9,-,N/A,,Mostly Cloudy,240,2012-10-06 01:56:00
10:15 PM,48.2,37.6,67,29.94,10.0,WSW,6.9,-,N/A,,Overcast,250,2012-10-06 02:15:00
10:35 PM,47.3,36.9,67,29.93,10.0,WSW,6.9,-,N/A,,Scattered Clouds,250,2012-10-06 02:35:00
10:56 PM,46.4,36.1,67,29.92,10.0,West,5.8,-,N/A,,Clear,260,2012-10-06 02:56:00
11:35 PM,46.0,35.6,67,29.92,10.0,WSW,5.8,-,N/A,,Clear,250,2012-10-06 03:35:00
11:56 PM,45.9,34.9,66,29.92,10.0,WSW,5.8,-,N/A,,Clear,240,2012-10-06 03:56:00